Left ArrowRight Arrow

33.98154, -81.23621

Hourly Observations for June 15, 2024

Temp ( °F °C ) Dew Point ( °F °C ) Humidity (%) Winds ( mph kmh ) Pressure ( in mb ) Visibility ( mi km ) Precip ( " mm )
12:56 am 00:56 Clear 74 23.3 68 20 82 82 S 5 7 29.91 1013 10 16 0.00 0.00
1:56 am 01:56 Clear 75 23.9 67 19.4 76 76 WSW 5 7 29.91 1013 10 16 0.00 0.00
2:56 am 02:56 Clear 74 23.3 67 19.4 79 79 Calm 29.91 1013 10 16 0.00 0.00
3:56 am 03:56 Clear 74 23.3 66 18.9 76 76 Calm 29.90 1013 10 16 0.00 0.00
4:56 am 04:56 Clear 72 22.2 66 18.9 82 82 WSW 3 6 29.91 1013 10 16 0.00 0.00
5:56 am 05:56 Mostly Cloudy 73 22.8 65 18.3 76 76 SSW 3 6 29.92 1013 10 16 0.00 0.00
6:56 am 06:56 Partly Cloudy 74 23.3 65 18.3 74 74 Calm 29.94 1014 10 16 0.00 0.00
7:56 am 07:56 Partly Cloudy 77 25 66 18.9 69 69 WSW 3 6 29.96 1015 10 16 0.00 0.00
8:56 am 08:56 Sunny 81 27.2 67 19.4 62 62 SSW 5 7 29.95 1014 10 16 0.00 0.00
9:56 am 09:56 Sunny 87 30.6 68 20 53 53 Calm 29.96 1015 10 16 0.00 0.00
10:56 am 10:56 Mostly Sunny 90 32.2 70 21.1 52 52 Calm 29.96 1015 10 16 0.00 0.00
11:56 am 11:56 Mostly Sunny 94 34.4 69 20.6 45 45 VRB 6 9 29.97 1015 10 16 0.00 0.00
12:56 pm 12:56 Partly Cloudy 93 33.9 70 21.1 47 47 Calm 29.96 1015 10 16 0.00 0.00
1:56 pm 13:56 Partly Cloudy 96 35.6 70 21.1 43 43 Calm 29.95 1014 10 16 0.00 0.00
2:56 pm 14:56 Partly Cloudy 97 36.1 70 21.1 42 42 NNE 6 9 29.93 1014 10 16 0.00 0.00
3:56 pm 15:56 Mostly Cloudy 96 35.6 69 20.6 42 42 VRB 7 11 29.92 1013 10 16 0.00 0.00
4:56 pm 16:56 Mostly Cloudy with Nearby Thunderstorms 92 33.3 71 21.7 51 51 E 10 17 29.92 1013 10 16 0.00 0.00
5:56 pm 17:56 Mostly Cloudy 85 29.4 71 21.7 63 63 SSW 9 15 29.94 1014 10 16 0.00 0.00
6:56 pm 18:56 Mostly Cloudy 86 30 71 21.7 61 61 ESE 3 6 29.93 1014 10 16 0.01 0.25
7:56 pm 19:56 Mostly Sunny 83 28.3 70 21.1 65 65 SW 6 9 29.96 1015 10 16 0.00 0.00
8:56 pm 20:56 Partly Cloudy 80 26.7 70 21.1 71 71 WSW 5 7 29.97 1015 10 16 0.00 0.00
9:56 pm 21:56 Mostly Clear 80 26.7 69 20.6 69 69 Calm 29.98 1015 10 16 0.00 0.00
10:56 pm 22:56 Clear 78 25.6 71 21.7 79 79 E 3 6 30.01 1016 10 16 0.00 0.00
11:56 pm 23:56 Mostly Clear 78 25.6 71 21.7 79 79 Calm 30.02 1017 10 16 0.00 0.00

Powered by Vaisala Xweather